Regional Weather Roundup
Issued by NWS

Home | Current Version | Previous Version | Graphics & Text | Print | Product List | Glossary On
Versions: 1 2 3 4 5 6 7 8 9 10 11 12 13 14 15 16 17 18 19 20 21 22 23 24 25 26 27 28 29 30 31 32 33 34 35 36 37 38 39 40 41 42 43 44 45 46 47 48 49 50
332
ASUS43 KIND 231609
RWRIN

WEATHER ROUNDUP FOR INDIANA
NATIONAL WEATHER SERVICE INDIANAPOLIS IN
1200 PM EDT SAT JUL 23 2016

NOTE: "FAIR" INDICATES FEW OR NO CLOUDS BELOW 12,000 FEET WITH NO
SIGNIFICANT WEATHER AND/OR OBSTRUCTIONS TO VISIBILITY.

* - STATION DOES NOT REPORT WEATHER SUCH AS PRECIPITATION OR FOG.

+ - STATION NOT QUALITY CONTROLLED BY THE NATIONAL WEATHER SERVICE.
    USE DATA WITH CAUTION...ESPECIALLY DEWPOINT AND RELATIVE
    HUMIDITY OBSERVATIONS.

INZ001>003-010>013-019-020-231700-
NORTHWEST INDIANA

CITY           SKY/WX    TMP DP  RH WIND       PRES   REMARKS
GARY /AIRPORT/ PTSUNNY   88 N/A N/A NE7       30.00R
KNOX *+        MOSUNNY   84  68  58 CALM      30.00S
LA PORTE +     PTSUNNY   88  79  75 CALM      30.01R HX 102
MICHIGAN CITY+ MOSUNNY   86  81  84 NW3       30.01R HX 102
MONTICELLO +   MOSUNNY   85  73  67 SW6       30.01R
RENSSELAER +   CLOUDY    84  79  84 SW3       30.01S HX  96
VALPARAISO     CLOUDY    86  76  71 SW5       30.01R HX  96

$$

LMZ046-743>745-231700-
SOUTHERN LAKE MICHIGAN

STATION/POSITION TIME  TEMP    WIND        PRES    WAVE
                       AIR SEA DIR/SP/G            HT
                 (UTC) (F)     (DEG/KT/KT) (MB)    (FT)
BURNS HARBOR     1500   81        CALM     1015.9S
MICHIGAN CITY    1500   78     240/  6/  6   N/A
5NW MICH CITY    1600   79 75  280/  2/  4   N/A     0

$$

INZ004-005-014>016-021>024-231700-
NORTH CENTRAL INDIANA

CITY           SKY/WX    TMP DP  RH WIND       PRES   REMARKS
ELKHART        SUNNY     88  77  70 CALM      30.01R HX 100
GOSHEN         MOSUNNY   88  67  49 CALM      30.01R
LOGANSPORT +   CLOUDY    82  73  74 W5        30.03R
PERU/GRISSOM   PTSUNNY   86  75  70 VRB5      30.02R HX  95
ROCHESTER +    MOSUNNY   88  79  74 S3        30.01F HX 102
SOUTH BEND     MOSUNNY   88  74  63 CALM      30.01S HX  96
WARSAW +       MOSUNNY   86  72  62 CALM      30.01S

$$

INZ006>009-017-018-025>027-231700-
NORTHEAST INDIANA

CITY           SKY/WX    TMP DP  RH WIND       PRES   REMARKS
ANGOLA *+        N/A     84  81  89 VRB5      30.02R HX  98
AUBURN +       SUNNY     86  64  48 NW7       30.03R
FORT WAYNE     PTSUNNY   85  73  67 W6        30.02R
HUNTINGTON +   MOSUNNY  N/A N/A N/A W6        30.02R

$$

INZ028-029-035-036-043>045-051>053-231700-
WEST CENTRAL INDIANA

CITY           SKY/WX    TMP DP  RH WIND       PRES   REMARKS
CRAWFORDSVL +  PTSUNNY   83  75  76 CALM      30.03S
GREENCASTLE +  CLOUDY    82  77  83 CALM      30.04S
LAFAYETTE      MOSUNNY   83  75  77 SW5       30.01S
TERRE HAUTE    PTSUNNY   86  74  67 SE5       30.02F

$$

INZ030>032-037>040-046>048-054>057-064-065-231700-
CENTRAL INDIANA

CITY           SKY/WX    TMP DP  RH WIND       PRES   REMARKS
ANDERSON       MOSUNNY   82  72  69 CALM      30.04S
COLUMBUS       MOSUNNY   82  77  83 S3        30.03F
FISHERS *+     PTSUNNY   84  75  74 NW3       30.03
FRANKFORT +    PTSUNNY   89  75  63 SW3       30.05R HX  98
INDIANAPOLIS   PTSUNNY   84  73  69 SW6       30.03S
-EAGLE CREEK   PTSUNNY   86  72  62 VRB3      30.02S
KOKOMO *+      PTSUNNY   84  72  65 NW6       30.02R
MARION +       MOSUNNY   82  73  72 CALM      30.03S
MT COMFORT *+  PTSUNNY   84  73  70 CALM      30.03S
SHELBYVILLE    PTSUNNY   86  73  65 S5        30.02F
ZIONSVILLE +   MOSUNNY   83  73  71 CALM      30.04R

$$

INZ033-034-041-042-049-050-058-059-231700-
EAST CENTRAL INDIANA

CITY           SKY/WX    TMP DP  RH WIND       PRES   REMARKS
MUNCIE         SUNNY     86  73  65 W5        30.03S

$$

INZ060-061-067>069-081>083-085>088-231700-
SOUTHWEST INDIANA

CITY           SKY/WX    TMP DP  RH WIND       PRES   REMARKS
EVANSVILLE     MOSUNNY   86  74  67 E7        30.00F
HUNTINGBURG *+ SUNNY     86  75  70 S7        30.01S HX  95
WASHINGTON +   MOSUNNY   84  79  86 MISG      30.01S HX  96

$$

INZ062-063-066-070>080-084-089>092-231700-
SOUTH CENTRAL AND SOUTHEAST INDIANA

CITY           SKY/WX    TMP DP  RH WIND       PRES   REMARKS
BLOOMINGTON    MOSUNNY   84  73  69 VRB5      30.03F
MADISON *+     MOSUNNY   86  72  62 S5        30.05S
NORTH VERNON + PTSUNNY   86  77  74 CALM      30.04F HX  97
SEYMOUR +      MOSUNNY   88  73  62 CALM      30.02F HX  96

$$





USA.gov is the U.S. government's official web portal to all federal, state and local government web resources and services.